GW0759 Weather Reports


Display with metric or nautical units.
time (UTC)temp
F
wind
direction
speed
MPH
gust
MPH
rain 1hr
in
rain 24hr
in
rain mn
in
humidity
%
barometer
mb
20260503020055 62 0 0.0 0.0 0.00 0.00 0.00 72 1017.8
20260503014552 63 0 0.0 0.0 0.00 0.00 0.00 70 1017.7
20260503013058 64 0 0.0 0.0 0.00 0.00 0.00 65 1017.4
20260503011606 66 0 0.0 0.0 0.00 0.00 0.00 63 1017.4
20260503010119 69 0 0.0 0.0 0.00 0.00 0.00 58 1017.4
20260503004555 71 0 0.0 0.0 0.00 0.00 0.00 52 1017.4
20260503003053 73 0 0.0 0.0 0.00 0.00 0.00 46 1017.4
20260503001552 72 0 0.0 1.0 0.00 0.00 0.00 46 1017.3
20260503000106 74 329 0.0 4.0 0.00 0.00 0.00 45 1017.4
20260502234556 74 0 1.0 5.0 0.00 0.00 0.00 44 1017.3
20260502233050 74 0 1.0 7.0 0.00 0.00 0.00 41 1017.4
20260502231555 75 309 5.0 11.0 0.00 0.00 0.00 40 1017.4
20260502230056 74 219 0.0 5.0 0.00 0.00 0.00 44 1017.4
20260502224552 74 339 1.0 5.0 0.00 0.00 0.00 42 1017.4
20260502223057 75 360 3.0 9.0 0.00 0.00 0.00 40 1017.4
20260502221555 75 299 2.0 10.0 0.00 0.00 0.00 40 1017.5
20260502220055 75 302 5.0 9.0 0.00 0.00 0.00 44 1017.5
20260502214624 75 341 1.0 8.0 0.00 0.00 0.00 44 1017.6
20260502213056 75 293 2.0 8.0 0.00 0.00 0.00 41 1018.0
20260502211603 74 292 5.0 11.0 0.00 0.00 0.00 39 1018.2
20260502210055 75 251 4.0 10.0 0.00 0.00 0.00 44 1018.3
20260502204556 75 0 0.0 12.0 0.00 0.00 0.00 40 1018.5
20260502203106 74 336 5.0 12.0 0.00 0.00 0.00 45 1018.6
20260502201603 74 313 2.0 10.0 0.00 0.00 0.00 39 1018.7
20260502200053 74 332 4.0 11.0 0.00 0.00 0.00 42 1018.9
20260502194557 73 299 3.0 8.0 0.00 0.00 0.00 44 1018.9
20260502193052 74 325 3.0 8.0 0.00 0.00 0.00 44 1019.2
20260502191550 72 355 2.0 9.0 0.00 0.00 0.00 40 1019.4
20260502190050 73 304 5.0 10.0 0.00 0.00 0.00 49 1019.4
20260502184553 72 32 1.0 8.0 0.00 0.00 0.00 45 1019.6
20260502183053 72 335 4.0 11.0 0.00 0.00 0.00 47 1019.9
20260502181551 72 332 6.0 10.0 0.00 0.00 0.00 48 1019.9
20260502163056 68 331 2.0 7.0 0.00 0.00 0.00 57 1020.9
20260502161552 67 343 3.0 10.0 0.00 0.00 0.00 59 1020.8
20260502151553 64 297 5.0 11.0 0.00 0.00 0.00 67 1020.6
20260502123054 50 0 0.0 2.0 0.00 0.01 0.00 86 1019.3
20260502121553 49 333 1.0 2.0 0.00 0.01 0.00 87 1019.1
20260502114621 50 0 0.0 3.0 0.00 0.01 0.00 84 1018.6
20260502113049 50 333 0.0 4.0 0.00 0.01 0.00 83 1018.4
20260502111550 50 333 1.0 3.0 0.00 0.01 0.00 85 1018.2
20260502110053 49 333 0.0 2.0 0.00 0.01 0.00 85 1017.8
20260502104551 49 0 0.0 2.0 0.00 0.01 0.00 87 1017.8
20260502103051 48 0 0.0 2.0 0.00 0.01 0.00 88 1017.7
20260502101603 49 0 0.0 0.0 0.00 0.01 0.00 84 1017.4
20260502100105 50 0 0.0 2.0 0.00 0.01 0.00 85 1017.3
20260502064614 49 0 0.0 0.0 0.00 0.01 0.00 91 1017.3
20260502063104 50 0 0.0 0.0 0.00 0.01 0.00 91 1017.6
20260502061548 50 0 0.0 0.0 0.00 0.01 0.00 91 1017.6
20260502060049 50 0 0.0 0.0 0.00 0.01 0.00 91 1017.5
20260502054553 51 0 0.0 0.0 0.00 0.01 0.00 90 1017.7
20260502053056 51 0 0.0 0.0 0.00 0.01 0.00 90 1017.8
20260502051547 51 0 0.0 0.0 0.00 0.01 0.00 89 1017.5
20260502050053 52 0 0.0 0.0 0.00 0.01 0.00 88 1017.3
20260502044547 53 0 0.0 0.0 0.00 0.01 0.01 89 1017.4
20260502043122 53 0 0.0 0.0 0.00 0.01 0.01 88 1017.3
20260502041559 52 0 0.0 0.0 0.00 0.01 0.01 87 1017.3
20260502040050 52 0 0.0 0.0 0.00 0.01 0.01 84 1017.2
20260502034552 53 0 0.0 0.0 0.00 0.01 0.01 83 1017.2
20260502033052 53 0 0.0 0.0 0.00 0.01 0.01 82 1017.1
20260502031548 53 0 0.0 1.0 0.00 0.01 0.01 82 1016.9
20260502030057 54 0 0.0 0.0 0.00 0.01 0.01 81 1017.0
20260502024555 56 0 0.0 2.0 0.00 0.01 0.01 78 1016.8
20260502023104 57 333 1.0 3.0 0.00 0.01 0.01 73 1016.6
20260502021553 57 333 1.0 3.0 0.00 0.01 0.01 74 1016.3